This demonstration page uses our WeatherBlox Daily Observations layout. Learn more.

Hourly Observations for June 28, 2020

Temp ( °F °C ) Dew Point ( °F °C ) Humidity (%) Winds ( mph kmh ) Pressure ( in mb ) Visibility ( mi km ) Precip ( " mm )
12:15 am 00:15 Mostly Cloudy with Nearby Thunderstorms 75 24.1 67 19.5 76 76 SE 15 24 29.56 1001 10 16.0934 0 0
12:35 am 00:35 Windy with Storms Likely 75 24 68 20 78 78 S 23 37 29.57 1001 10 16.0934 0 0
12:55 am 00:55 Cloudy with Light Thunderstorms 71 21.4 60 15.7 70 70 W 13 20 29.61 1003 10 16.0934 0 0
1:15 am 01:15 Mostly Cloudy with Thunderstorms 69 20.8 61 16.2 75 75 SW 10 17 29.58 1002 10 16.0934 0 0
1:35 am 01:35 Mostly Cloudy with Light Rain 69 20.8 61 16.1 75 75 WSW 9 15 29.56 1001 10 16.0934 0.01 0.254
1:55 am 01:55 Mostly Cloudy with Light Rain 67 19.7 63 17 85 85 SW 9 15 29.55 1001 10 16.0934 0.02 0.508
2:15 am 02:15 Mostly Cloudy with Light Rain 67 19.7 63 17.4 87 87 SSW 22 35 29.53 1000 10 16.0934 0.02 0.508
2:35 am 02:35 Cloudy with Light Thunderstorms 67 19.5 63 17 86 86 SSW 14 22 29.52 1000 10 16.0934 0.04 1.016
2:55 am 02:55 Partly Cloudy with Light Drizzle 68 20 62 16.6 81 81 SSW 5 7 29.51 999 10 16.0934 0.04 1.016
3:15 am 03:15 Clear 70 21 61 16.2 74 74 S 9 15 29.51 999 10 16.0934 0 0
3:35 am 03:35 Clear 68 20 61 16.1 78 78 S 17 28 29.54 1000 10 16.0934 0 0
3:55 am 03:55 Clear 67 19.3 61 16.3 83 83 S 15 24 29.54 1000 10 16.0934 0 0
4:15 am 04:15 Clear 67 19.3 61 16.1 82 82 ESE 14 22 29.55 1001 10 16.0934 0 0
4:35 am 04:35 Clear 67 19.5 62 16.5 83 83 E 17 28 29.58 1002 10 16.0934 0 0
4:55 am 04:55 Clear 67 19.4 62 16.5 83 83 ESE 17 28 29.54 1000 10 16.0934 0 0
5:15 am 05:15 Clear 66 18.7 62 16.7 88 88 E 14 22 29.53 1000 10 16.0934 0 0
5:35 am 05:35 Clear 65 18.5 63 17 91 91 E 10 17 29.53 1000 10 16.0934 0 0
5:55 am 05:55 Clear 64 18 63 17 94 94 E 6 9 29.54 1000 10 16.0934 0 0
6:15 am 06:15 Sunny 64 17.8 62 16.9 95 95 ESE 9 15 29.55 1001 10 16.0934 0 0
6:35 am 06:35 Sunny 64 18 63 17 94 94 SE 7 11 29.56 1001 10 16.0934 0 0
6:55 am 06:55 Sunny 64 17.8 62 16.7 93 93 Calm 29.58 1002 10 16.0934 0 0
7:15 am 07:15 Sunny 66 18.7 63 17.2 91 91 E 7 11 29.59 1002 10 16.0934 0 0
7:35 am 07:35 Sunny 67 19.7 63 17.4 87 87 ESE 10 17 29.58 1002 10 16.0934 0 0
7:55 am 07:55 Sunny 69 20.6 64 17.8 84 84 ESE 9 15 29.57 1001 10 16.0934 0 0
8:15 am 08:15 Sunny 69 20.8 65 18.3 86 86 SE 10 17 29.56 1001 10 16.0934 0 0
8:35 am 08:35 Sunny 72 22 67 19.2 84 84 ESE 12 19 29.56 1001 10 16.0934 0 0
8:55 am 08:55 Sunny 73 22.7 67 19.6 83 83 SE 12 19 29.56 1001 10 16.0934 0 0
9:15 am 09:15 Sunny 75 23.7 68 20 80 80 SSE 12 19 29.54 1000 10 16.0934 0 0
9:35 am 09:35 Sunny 76 24.5 68 20 76 76 SSE 12 19 29.52 1000 10 16.0934 0 0
9:55 am 09:55 Sunny 77 25.1 67 19.6 72 72 S 12 19 29.52 1000 10 16.0934 0 0
10:15 am 10:15 Sunny 78 25.8 68 20 70 70 S 12 19 29.5 999 10 16.0934 0 0
10:35 am 10:35 Sunny 80 26.4 67 19.7 67 67 S 13 20 29.5 999 10 16.0934 0 0
10:55 am 10:55 Sunny 81 27 68 20 66 66 S 15 24 29.48 998 10 16.0934 0 0
11:15 am 11:15 Sunny 81 27.2 67 19.7 64 64 S 14 22 29.48 998 10 16.0934 0 0
11:35 am 11:35 Sunny 82 27.7 68 19.9 63 63 S 14 22 29.48 998 7 11.26538 0 0
11:55 am 11:55 Sunny 82 28 69 20.4 63 63 SSE 12 19 29.46 998 7 11.26538 0 0
12:15 pm 12:15 Sunny 83 28.3 69 20.3 62 62 S 10 17 29.46 998 7 11.26538 0 0
12:35 pm 12:35 Sunny 83 28.5 69 20.4 62 62 S 10 17 29.46 998 7 11.26538 0 0
12:55 pm 12:55 Sunny 84 29 70 21 62 62 SSE 9 15 29.44 997 7 11.26538 0 0
1:15 pm 13:15 Sunny 85 29.5 70 21.1 61 61 SSE 12 19 29.44 997 7 11.26538 0 0
1:35 pm 13:35 Partly Cloudy 86 29.8 70 20.9 59 59 S 13 20 29.43 997 7 11.26538 0 0
1:55 pm 13:55 Partly Cloudy 86 30 70 20.9 58 58 SSE 10 17 29.44 997 7 11.26538 0 0
2:15 pm 14:15 Partly Cloudy 87 30.7 69 20.5 55 55 SSE 13 20 29.42 996 7 11.26538 0 0
2:35 pm 14:35 Partly Cloudy 88 30.9 68 19.9 52 52 SSE 13 20 29.41 996 7 11.26538 0 0
2:55 pm 14:55 Partly Cloudy 88 31 67 19.4 50 50 SSE 14 22 29.41 996 7 11.26538 0 0
3:15 pm 15:15 Sunny 89 31.5 66 19 47 47 SSE 14 22 29.41 996 7 11.26538 0 0
3:35 pm 15:35 Partly Cloudy 89 31.5 66 18.9 47 47 SSE 12 19 29.41 996 7 11.26538 0 0
3:55 pm 15:55 Sunny 89 31.6 65 18.5 46 46 SSE 10 17 29.41 996 7 11.26538 0 0
4:15 pm 16:15 Sunny 89 31.7 65 18.5 45 45 S 14 22 29.42 996 7 11.26538 0 0
4:35 pm 16:35 Partly Cloudy 89 31.8 67 19.4 48 48 SSE 14 22 29.41 996 7 11.26538 0 0
4:55 pm 16:55 Partly Cloudy 89 31.9 66 19.1 47 47 SSE 10 17 29.4 995 7 11.26538 0 0
5:15 pm 17:15 Sunny 90 32.3 67 19.5 47 47 SE 12 19 29.39 995 7 11.26538 0 0
5:35 pm 17:35 Partly Cloudy 90 32.3 67 19.4 46 46 S 14 22 29.39 995 7 11.26538 0 0
5:55 pm 17:55 Partly Cloudy 90 32.2 68 19.9 48 48 SSE 13 20 29.38 995 7 11.26538 0 0
6:15 pm 18:15 Sunny 90 32.2 68 20.1 49 49 SSE 14 22 29.37 995 7 11.26538 0 0
6:35 pm 18:35 Sunny 90 32 67 19.5 48 48 SSE 15 24 29.37 995 10 16.0934 0 0
6:55 pm 18:55 Sunny 90 32 67 19.6 48 48 SSE 14 22 29.36 994 7 11.26538 0 0
7:15 pm 19:15 Sunny 89 31.6 67 19.6 49 49 SSE 14 22 29.37 995 10 16.0934 0 0
7:35 pm 19:35 Sunny 88 31.2 68 19.8 51 51 SSE 13 20 29.37 995 10 16.0934 0 0
7:55 pm 19:55 Sunny 87 30.6 68 19.9 53 53 SSE 12 19 29.38 995 7 11.26538 0 0
8:15 pm 20:15 Sunny 86 30 67 19.7 54 54 SE 9 15 29.38 995 10 16.0934 0 0
8:35 pm 20:35 Sunny 84 29 67 19.7 57 57 SE 9 15 29.39 995 10 16.0934 0 0
8:55 pm 20:55 Sunny 82 27.7 68 20 63 63 SE 8 13 29.41 996 10 16.0934 0 0
9:15 pm 21:15 Clear 81 27.1 68 20.1 66 66 SSE 8 13 29.41 996 10 16.0934 0 0
9:35 pm 21:35 Clear 80 26.5 69 20.4 69 69 SSE 8 13 29.42 996 10 16.0934 0 0
9:55 pm 21:55 Clear 80 26.5 69 20.4 69 69 SSE 8 13 29.43 996 10 16.0934 0 0
10:15 pm 22:15 Clear 79 26.2 68 20.1 69 69 SSE 8 13 29.44 997 10 16.0934 0 0
10:35 pm 22:35 Clear 79 26.2 68 20.2 70 70 SSE 8 13 29.45 997 7 11.26538 0 0
10:55 pm 22:55 Clear 79 26.3 68 20.2 69 69 SSE 8 13 29.45 997 10 16.0934 0 0
11:15 pm 23:15 Clear 79 26 69 20.3 71 71 SSE 9 15 29.45 997 10 16.0934 0 0
11:35 pm 23:35 Clear 78 25.8 69 20.5 73 73 SSE 8 13 29.46 998 10 16.0934 0 0
11:55 pm 23:55 Clear 78 25.5 69 20.5 74 74 SSE 8 13 29.47 998 10 16.0934 0 0

Powered by AerisWeather